Regional Weather Roundup
Issued by NWS

Home | Current Version | Previous Version | Graphics & Text | Print | Product List | Glossary On
Versions: 1 2 3 4 5 6 7 8 9 10 11 12 13 14 15 16 17 18 19 20 21 22 23 24 25 26 27
000
ASUS45 KBOI 062010
RWRID

IDAHO REGIONAL WEATHER ROUNDUP
NATIONAL WEATHER SERVICE BOISE ID
200 PM MDT FRI MAY 06 2016

NOTE: "FAIR" INDICATES FEW OR NO CLOUDS BELOW 12000 FEET
WITH NO SIGNIFICANT WEATHER AND/OR OBSTRUCTIONS TO VISIBILITY

IDZ012-014-062100-
SOUTHWEST IDAHO


CITY           SKY/WX    TMP DP  RH WIND       PRES   REMARKS
BOISE          CLOUDY    70  51  51 NW6       29.82S
CALDWELL       CLOUDY    73  51  46 W10       29.81F
MOUNTAIN HOME  CLOUDY    71  47  43 VRB2      29.81F
$$

IDZ016-017-062100-
SOUTHCENTRAL IDAHO


CITY           SKY/WX    TMP DP  RH WIND       PRES   REMARKS
BURLEY         CLOUDY    63  48  58 NE16G23   29.85S
JEROME         CLOUDY    65  47  52 NE13      29.85F
TWIN FALLS     CLOUDY    63  49  60 NE15      29.85F
$$

IDZ019>023-062100-
SOUTHEAST IDAHO


CITY           SKY/WX    TMP DP  RH WIND       PRES   REMARKS
IDAHO FALLS    LGT RAIN  53  49  86 S10       30.02R FOG
POCATELLO      CLOUDY    57  52  83 NE12      29.93F
REXBURG        CLOUDY    54  49  83 S18G25    30.01R
$$

IDZ006-010-011-018-031-032-062100-
CENTRAL IDAHO MOUNTAINS


CITY           SKY/WX    TMP DP  RH WIND       PRES   REMARKS
MCCALL         CLOUDY    67  39  35 VRB3      29.90F
HAILEY         LGT RAIN  52  48  87 NW6       30.02R
STANLEY          N/A     59  38  45 VRB3      30.01F
SALMON         CLOUDY    66  41  39 SE6       29.98F
CHALLIS        CLOUDY    61  44  53 NW8       30.00F
$$

IDZ002-004-006-007-026-062100-
NORTHERN IDAHO


CITY           SKY/WX    TMP DP  RH WIND       PRES   REMARKS
LEWISTON       PTSUNNY   73  58  59 NW6       29.94F
LOWELL           N/A     70  54  56 S12G17    29.89F
COEUR D`ALENE  PTSUNNY   73  46  38 E10       30.01F
MULLAN PASS    CLOUDY    46  43  89 VRB6      30.16R
$$




USA.gov is the U.S. government's official web portal to all federal, state and local government web resources and services.